AirNav   Air Wisconsin Up To $57,000 Bonus
 
 1091 users online  

9K8 Kingman Airport - Clyde Cessna Field
Kingman, Kansas, USA

GOING TO KINGMAN?


FAA INFORMATION EFFECTIVE 05 NOVEMBER 2020

Location

FAA Identifier: 9K8
Lat/Long: 37-40-08.4580N 098-07-26.0101W
37-40.140967N 098-07.433502W
37.6690161,-98.1238917
(estimated)
Elevation: 1606.6 ft. / 489.7 m (surveyed)
Variation: 06E (2005)
From city: 1 mile NW of KINGMAN, KS
Time zone: UTC -6 (UTC -5 during Daylight Saving Time)
Zip code: 67068

Airport Operations

Airport use: Open to the public
Activation date: 08/1945
Control tower: no
ARTCC: KANSAS CITY CENTER
FSS: WICHITA FLIGHT SERVICE STATION
NOTAMs facility: ICT (NOTAM-D service available)
Attendance: MON-FRI 0830-2000
Wind indicator: lighted
Segmented circle: yes
Lights: ACTVT REIL RWY 18 & 36; PAPI RWY 18 & 36; HIRL 18/36 - CTAF.
Beacon: white-green (lighted land airport)
Operates sunset to sunrise.

Airport Communications

CTAF/UNICOM: 122.8
WX AWOS-3: 119.325 (620-532-1272)
WICHITA APPROACH: 125.5
WICHITA DEPARTURE: 125.5

Nearby radio navigation aids

VOR radial/distance  VOR name  Freq  Var
HUTr201/21.6HUTCHINSON VOR/DME116.8004E
ICTr253/26.0WICHITA VORTAC113.8007E
ANYr357/30.7ANTHONY VORTAC112.9007E

Airport Services

Fuel available: 100LL
SELF SVC FUEL AVBL WITH CREDIT CARD.
Parking: hangars and tiedowns
Airframe service: MAJOR
Powerplant service: MAJOR
Bottled oxygen: NONE
Bulk oxygen: NONE

Runway Information

Runway 18/36

Dimensions: 4300 x 75 ft. / 1311 x 23 m
Surface: concrete, in fair condition
Weight bearing capacity: 
PCN 11 /R/C/X/U
Single wheel: 30.0
Double wheel: 30.0
Runway edge lights: high intensity
RUNWAY 18  RUNWAY 36
Latitude: 37-40.435347N37-39.734007N
Longitude: 098-07.279277W098-07.406053W
Elevation: 1598.7 ft.1596.5 ft.
Traffic pattern: rightleft
Runway heading: 182 magnetic, 188 true002 magnetic, 008 true
Markings: nonprecision, in good conditionnonprecision, in good condition
Visual slope indicator: 4-light PAPI on left (3.00 degrees glide path)4-light PAPI on left (3.00 degrees glide path)
Runway end identifier lights: yesyes
Touchdown point: yes, no lightsyes, no lights
Obstructions: 15 ft. road, 550 ft. from runway, 24:1 slope to clear45 ft. trees, 1290 ft. from runway, 24:1 slope to clear

Runway 11/29

Dimensions: 3400 x 60 ft. / 1036 x 18 m
Surface: concrete, in good condition
Weight bearing capacity: 
PCN 11 /R/C/X/U
Single wheel: 30.0
Double wheel: 30.0
RUNWAY 11  RUNWAY 29
Latitude: 37-40.336687N37-40.087655N
Longitude: 098-07.864078W098-07.232797W
Elevation: 1606.6 ft.1592.5 ft.
Traffic pattern: leftright
Runway heading: 111 magnetic, 117 true291 magnetic, 297 true
Markings: nonprecision, in good conditionnonprecision, in good condition
Touchdown point: yes, no lightsyes, no lights
Obstructions: 29 ft. trees, 1350 ft. from runway, 39:1 slope to clear30 ft. pline, marked, 978 ft. from runway, 25:1 slope to clear
POWER LINE MARKED WITH ORANGE BALLS.

Airport Ownership and Management from official FAA records

Ownership: Publicly-owned
Owner: CITY OF KINGMAN
324 NORTH MAIN
KINGMAN, KS 67068
Phone 620-532-3111
Manager: EZRA OLSON
PO BOX 262
KINGMAN, KS 67068
Phone (620) 532-1279

Airport Operational Statistics

Aircraft based on the field: 23
Single engine airplanes: 22
Multi engine airplanes: 1
    
Aircraft operations: avg 26/day *
60% local general aviation
40% transient general aviation
* for 12-month period ending 31 July 2018

Additional Remarks

FOR CD CTC WICHITA APCH AT 316-350-1520.

Instrument Procedures

NOTE: All procedures below are presented as PDF files. If you need a reader for these files, you should download the free Adobe Reader.

NOT FOR NAVIGATION. Please procure official charts for flight.
FAA instrument procedures published for use from 05 November 2020 at 0901Z to 03 December 2020 at 0900z.

 
IAPs - Instrument Approach Procedures
RNAV (GPS) RWY 18   download (243KB)
RNAV (GPS) RWY 36   download (238KB)
NOTE: Special Take-Off Minimums/Departure Procedures apply   download (384KB)

Other nearby airports with instrument procedures:

8K2 - Harper Municipal Airport (24 nm S)
KHUT - Hutchinson Regional Airport (27 nm NE)
KPTT - Pratt Regional Airport (30 nm W)
KANY - Anthony Municipal Airport (31 nm S)
KICT - Wichita Dwight D Eisenhower National Airport (33 nm E)
 
Loc | Ops | Rwys | IFR | FBO | Links
Com | Nav | Svcs | Stats | Notes
Area around 9K8 (Kingman Airport - Clyde Cessna Field)
 
Road maps at: MapQuest Bing Google
 
Aerial photo
WARNING: Photo may not be current or correct
Aerial photo of 9K8 (Kingman Airport - Clyde Cessna Field)
Do you have a better or more recent aerial photo of Kingman Airport - Clyde Cessna Field that you would like to share? If so, please send us your photo.

 
Sectional chart

 
Airport distance calculator
Flying to Kingman Airport - Clyde Cessna Field? Find the distance to fly.

From to 9K8

Sunrise and sunset
Times for 27-Nov-2020
 Local
(UTC-6)
 Zulu
(UTC)
Morning civil twilight06:5812:58
Sunrise07:2713:27
Sunset17:1423:14
Evening civil twilight17:4323:43

Current date and time
Zulu (UTC)  27-Nov-2020 18:18:08
Local (UTC-6)  27-Nov-2020 12:18:08
 
METAR
KHUT 
27nm NE 
271752Z 03007KT 360V070 10SM CLR 09/M02 A3031 RMK AO2 SLP262 T00891022 10089 20006 51013
KPTT 
30nm W 
271755Z AUTO 03008KT 10SM CLR 08/M02 A3031 RMK AO2 T00801023 10080 21002
KP28 
31nm SW 
271756Z AUTO 03012G19KT 10/M02 A3029 RMK AO1 SLP263 T01001017 10106 20000 50006
KICT 
33nm E 
271753Z 01009KT 10SM CLR 09/01 A3029 RMK AO2 SLP259 T00890006 10089 20006 50009
KLYO 
41nm N 
271755Z AUTO 02008KT 10SM CLR 08/00 A3031 RMK AO2 T00780000 10079 21012
KIAB 
41nm E 
271756Z AUTO 02013KT 10SM CLR 10/M02 A3028 RMK AO2 SLP260 T00981016 10098 20005 50010 $
KBEC 
43nm E 
271755Z AUTO 01012G16KT 10SM CLR 09/M01 A3029 RMK AO2 T00871006 10087 20003
KAAO 
43nm E 
271754Z AUTO 03010KT 10SM CLR 09/M01 A3029 RMK AO2 SLP262 T00941011 10100 20000 50010
KEWK 
46nm NE 
271756Z AUTO 02010KT 10SM CLR 08/M01 A3030 RMK AO2 SLP264 T00781006 10078 20000 50002
TAF
KHUT 
27nm NE 
271301Z 2713/2812 35009KT P6SM SCT040 FM271400 35009KT 6SM BR SCT030 FM271500 35009KT P6SM FEW060
KICT 
33nm E 
271559Z 2716/2812 36010KT P6SM SCT005 FM271700 32010KT P6SM SKC FM280200 02004KT P6SM SKC
NOTAMs
Click for the latest NOTAMs
NOTAMs are issued by the DoD/FAA and will open in a separate window not controlled by AirNav.

 

 
 

FBO, Fuel Providers, and Aircraft Ground Support

  
 Business Name 
 
 Contact 
 
 Services / Description 
 
Fuel Prices
 
Comments
  
City of Kingman 620-532-1279
[web site]
[email]
Airport management, Aviation fuel, Aircraft parking (ramp or tiedown), Hangar leasing / sales, Passenger terminal and lounge, Courtesy transportation, ...

More info about City of Kingman
independent
100LL
AS $4.05 
 Updated 25-Nov-2020
 
   write
AS=Assisted/Self Service
Update Fuel Prices
 

Aviation Businesses, Services, and Facilities

  
 Business Name 
 
 Contact 
 
 Services / Description 
 
Distance
 
Comments
  
Prairie Wind Aviation 620-755-4440
[email]
Hangars, Aircraft maintenance, Avionics sales and service, Aircraft modifications, Aircraft cleaning / washing / detailing, Aircraft sales / leasing / brokerage, Aircraft management, ...

More info about Prairie Wind Aviation
on airport  
   write
 

Would you like to see your business listed on this page?

 If your business provides an interesting product or service to pilots, flight crews, aircraft, or users of the Kingman Airport - Clyde Cessna Field, you should consider listing it here.  To start the listing process, click on the button below
 
Add a business
 

Other Pages about Kingman Airport - Clyde Cessna Field

www.cityofkingman.com/airport
 
Update a link
 
Copyright © AirNav, LLC. All rights reserved. Privacy Policy  Contact